www.pogodaiklimat.ru

Погода и климат >> Архив погоды >> Индия >> Sambalpur


ПОГОДА в Sambalpur

  • Прогноз погоды в Sambalpur
  • Монитор погоды в Sambalpur
  • Климат города

АРХИВ ПОГОДЫ в Sambalpur

Время (UTC), дата Ветер
(напр.,м/с)
 
Видим.   Явления Облачность Т
(С)
Тd
(С)
f
(%)
Тe
(С)
Тes
(С)
Комфортность P
(гПа)
Po
(гПа)
Тmin
(С)
Tmax
(С)
R
(мм)
R24
(мм)
S
(см)
09 6.12 штиль 0 4000 м ясно +29.0 +14.9 42 +31 +40 жарко 1011.0 1011.0
12 6.12 штиль 0 4000 м ясно +25.0 +18.7 68 +30 +30 душно 1011.2 1011.0 +29.4
03 7.12 штиль 0 4000 м 3/3 600 м
[Sc]
+17.4 +13.9 80 +17 +21 1015.7 1016.0 +14.0
06 7.12 штиль 0 4000 м ясно +25.6 +13.4 47 +28 +43 жарко 1013.9 1014.0
09 7.12 штиль 0 4000 м ясно +28.4 +13.7 40 +30 +38 жарко 1011.2 1011.0
12 7.12 штиль 0 4000 м ясно +24.8 +18.2 67 +29 +29 душно 1011.6 1012.0 +28.8
03 8.12 штиль 0 4000 м ясно +17.4 +11.6 69 +17 +22 1017.6 1018.0 +13.5
06 8.12 штиль 0 4000 м ясно +24.2 +13.6 52 +26 +41 жарко 1016.7 1017.0
09 8.12 штиль 0 4000 м ясно +28.0 +15.7 47 +31 +39 душно 1012.8 1013.0
12 8.12 штиль 0 4000 м ясно +24.4 +18.7 71 +29 +29 душно 1013.2 1013.0 +28.6
03 9.12 штиль 0 4000 м ясно +16.6 +11.9 74 +17 +21 1016.9 1017.0 +13.0
06 9.12 штиль 0 4000 м ясно +24.0 +14.6 56 +27 +42 жарко 1015.4 1015.0
09 9.12 В 1 4000 м ясно +28.3 +14.8 44 +31 +38 душно 1011.6 1012.0
12 9.12 штиль 0 4000 м ясно +24.6 +17.9 66 +29 +29 душно 1011.7 1012.0 +29.4
03 10.12 В 1 4000 м 4/4 600 м
[Sc]
+18.0 +13.4 74 +20 +22 1016.1 1016.0 +15.0
06 10.12 штиль 0 4000 м ясно +25.2 +14.5 51 +28 +43 жарко 1014.3 1014.0
09 10.12 штиль 0 4000 м 3/3 600 м
[Sc]
+29.0 +16.1 46 +32 +38 душно 1011.2 1011.0
12 10.12 штиль 0 4000 м 4/4 600 м
[Sc]
+25.2 +17.9 64 +30 +30 душно 1012.1 1012.0 +29.5
03 11.12 штиль 0 2000 м мгла {дождь} 6/6 600 м
[Sc diur, vesp]
+17.2 +16.2 94 +17 +19 1015.5 1016.0 +15.4 4
06 11.12 В 1 2000 м мгла 10/6 600 м
[Sc As trans]
+22.2 +15.3 65 +26 +28 душно 1015.4 1015.0
09 11.12 штиль 0 4000 м ясно +24.8 +16.0 58 +28 +36 жарко 1012.3 1012.0
12 11.12 штиль 0 4000 м 6/6 600 м
[Sc]
+23.4 +19.7 80 +30 +30 очень
душно
1012.4 1012.0 +26.0
03 12.12 штиль 0 4000 м 4/4 600 м
[Sc]
+18.0 +15.6 86 +18 +21 1017.4 1017.0 +15.7
06 12.12 штиль 0 4000 м 3/3 600 м
[Sc]
+24.4 +15.9 59 +28 +38 душно 1015.9 1016.0
09 12.12 штиль 0 4000 м 3/3 600 м
[Sc]
+29.0 +19.2 55 +34 +40 очень
душно
1012.7 1013.0
12 12.12 штиль 0 4000 м ясно +25.6 +21.1 76 +32 +32 очень
душно
1012.9 1013.0 +29.4
03 13.12 штиль 0 4000 м 6/6 600 м
[Sc diur, vesp]
+19.2 +16.5 84 +21 +23 комфорт 1017.9 1018.0 +16.0
06 13.12 штиль 0 4000 м 6/6 600 м
[Sc]
+24.2 +17.1 65 +28 +34 душно 1017.4 1017.0

 

Местоположение метеостанции Sambalpur (Orissa, Индия): широта 21.47 долгота 83.97 высота над уровнем моря 148 м.

В архиве по умолчанию представлена погода в Sambalpur за последнюю неделю. Архивные данные за месяц целиком и за предыдущие месяцы, начиная с января 2011 года, Вы можете получить, выбрав интересующий диапазон дат из раскрывающегося списка и нажав кнопку "Ввод!".


*Определитесь, кто Вы:
робот инопланетянин человек

Внимание! Время в таблицах - всемирное. Для получения местного времени необходимо прибавить поправку, которая в Sambalpur равна 5.5 ч.

Смотрите также архив погоды в соседних городах и на ближайших метеорологических станциях:

Погода в Hirakud (Orissa, Индия) (12 км)
Погода в Jharsuguda (Orissa, Индия) (51 км)
Погода в Sundargarh (Orissa, Индия) (73 км)
Погода в Phulbani (Orissa, Индия) (114 км)
Погода в Angul (Orissa, Индия) (137 км)
Погода в Titlagarh (Orissa, Индия) (148 км)
Погода в Keongjhargarh (Orissa, Индия) (161 км)
Погода в Bhawanipatna (Orissa, Индия) (191 км)
Погода в Bilaspur (Chhattisgarh, Индия) (199 км)
Погода в Ambikapur (Chhattisgarh, Индия) (203 км)

Пояснения к столбцам:

Ветер - указаны скорость ветра в м/с - средняя за 10 мин, порывы в срок и между сроками (в фигурных скобках) и направление, откуда дует ветер: С - северный, СВ - северо-восточный, В - восточный, ЮВ - юго-восточный, Ю - южный, ЮЗ - юго-западный, З - западный, СЗ - северо-западный.
Видимость - горизонтальная дальность видимости в метрах или километрах. При видимости от 1 до 10 км при отсутствии осадков обычно наблюдается дымка, при ухудшении видимости до 1 км и менее - туман. В сухую погоду видимость может ухудшаться дымом, пылью или мглою.
Явления - указаны атмосферные явления, наблюдавшиеся в срок или в последний час перед сроком; фигурными скобками обозначены явления, наблюдавшиеся между сроками (за 1-3 часа до срока); квадратными скобками обозначены град или гололедные отложения с указанием их диаметра в мм.
Облачность - указаны через наклонную черту общая и нижняя облачность в баллах и высота нижней границы облаков в метрах; квадратными скобками обозначены формы облаков: Ci - перистые, Cs - перисто-слоистые, Cc - перисто-кучевые, Ac - высококучевые, As - высокослоистые, Sc - слоисто-кучевые, Ns - слоисто-дождевые, Cu - кучевые, Cb - кучево-дождевые. Подробнее классификацию облаков см. в Атласе облаков (PDF).
T - Температура воздуха - температура, измеренная на высоте 2 м над землей.
Td - Температура точки росы - температура, при понижении до которой содержащийся в воздухе водяной пар достигнет насыщения.
f - Относительная влажность воздуха - влажноcть воздуха, измеренная на высоте 2 м над землей.
Te - Эффективная температура - температура, которую ощущает одетый по сезону человек в тени. Характеристика душности погоды. При расчете учитывается влияние влажности воздуха и скорости ветра на теплоощущения человека.
Tes - Эффективная температура на солнце - температура, которую ощущает человек, с поправкой на солнечный нагрев. Характеристика знойности погоды. Зависит от высоты солнца над горизонтом, облачности и скорости ветра. Ночью, в пасмурную погоду, а также при ветре 12 м/с и более поправка равна нулю.
P - Атмосферное давление - приведенное к уровню моря атмосферное давление.
Po - Атмосферное давление - измеренное на уровне метеостанции атмосферное давление.
Tmin - Минимальная температура - минимум температуры воздуха на высоте 2 м над землей.
Tmax - Максимальная температура - максимум температуры воздуха на высоте 2 м над землей.
R - Количество осадков - Количество выпавших осадков за период времени, мм. При наведении курсора мыши на число - период времени, за который выпало указанное количество осадков.
R24 - Количество осадков - Количество выпавших осадков за 24 часа, мм.
S - Снежный покров - Высота снежного покрова, см. При наведении курсора мыши на число - состояние снежного покрова и степень покрытия местности в баллах.